iso_date,Year,Hour,Min,DOY,POS_DOY,Lat,Lon,BP,Ts,Ta,has_bp,has_ts,has_ta,BuoyID,Buoy_Type,Buoy_Owner,Logistics,Hemisphere
2022-02-18T00:00:25Z,2022,0,0,49.0003,49.0003,71.92408,-140.78919,1026.7,-20.85,-999.0,yes,yes,no,300534062028510,Ice Ball_34,USIABP,ICEX_2022,North
2022-02-18T01:00:28Z,2022,1,0,49.042,49.042,71.92408,-140.78924,1026.9,-23.85,-999.0,yes,yes,no,300534062028510,Ice Ball_34,USIABP,ICEX_2022,North
2022-02-18T02:00:57Z,2022,2,0,49.084,49.084,71.92406,-140.78929,1026.5,-24.3,-999.0,yes,yes,no,300534062028510,Ice Ball_34,USIABP,ICEX_2022,North
2022-02-18T03:00:25Z,2022,3,0,49.1253,49.1253,71.92406,-140.78938,1026.5,-25.3,-999.0,yes,yes,no,300534062028510,Ice Ball_34,USIABP,ICEX_2022,North
2022-02-18T04:00:28Z,2022,4,0,49.167,49.167,71.92404,-140.78942,1025.8,-26.1,-999.0,yes,yes,no,300534062028510,Ice Ball_34,USIABP,ICEX_2022,North
2022-02-18T05:00:57Z,2022,5,0,49.209,49.209,71.92401,-140.7894,1025.2,-26.9,-999.0,yes,yes,no,300534062028510,Ice Ball_34,USIABP,ICEX_2022,North
2022-02-18T06:00:25Z,2022,6,0,49.2503,49.2503,71.92403,-140.78941,1025.0,-27.0,-999.0,yes,yes,no,300534062028510,Ice Ball_34,USIABP,ICEX_2022,North
2022-02-18T07:00:28Z,2022,7,0,49.292,49.292,71.92402,-140.78943,1025.0,-27.4,-999.0,yes,yes,no,300534062028510,Ice Ball_34,USIABP,ICEX_2022,North
2022-02-18T08:00:57Z,2022,8,0,49.334,49.334,71.92401,-140.78948,1024.6,-26.45,-999.0,yes,yes,no,300534062028510,Ice Ball_34,USIABP,ICEX_2022,North
2022-02-18T09:00:25Z,2022,9,0,49.3753,49.3753,71.92401,-140.78955,1023.9,-27.2,-999.0,yes,yes,no,300534062028510,Ice Ball_34,USIABP,ICEX_2022,North
2022-02-18T10:00:28Z,2022,10,0,49.417,49.417,71.92399,-140.78958,1023.5,-27.7,-999.0,yes,yes,no,300534062028510,Ice Ball_34,USIABP,ICEX_2022,North
2022-02-18T11:00:23Z,2022,11,0,49.4586,49.4586,71.92401,-140.78958,1023.4,-27.65,-999.0,yes,yes,no,300534062028510,Ice Ball_34,USIABP,ICEX_2022,North
2022-02-18T12:01:00Z,2022,12,1,49.5007,49.5007,71.92399,-140.78959,1022.8,-27.55,-999.0,yes,yes,no,300534062028510,Ice Ball_34,USIABP,ICEX_2022,North
2022-02-18T13:00:28Z,2022,13,0,49.542,49.542,71.92398,-140.78966,1022.5,-26.45,-999.0,yes,yes,no,300534062028510,Ice Ball_34,USIABP,ICEX_2022,North
2022-02-18T14:00:23Z,2022,14,0,49.5836,49.5836,71.92397,-140.78967,1021.7,-25.45,-999.0,yes,yes,no,300534062028510,Ice Ball_34,USIABP,ICEX_2022,North
2022-02-18T15:00:51Z,2022,15,0,49.6256,49.6256,71.92397,-140.78974,1021.6,-24.85,-999.0,yes,yes,no,300534062028510,Ice Ball_34,USIABP,ICEX_2022,North
2022-02-18T16:00:28Z,2022,16,0,49.667,49.667,71.92398,-140.78977,1021.1,-24.15,-999.0,yes,yes,no,300534062028510,Ice Ball_34,USIABP,ICEX_2022,North
2022-02-18T17:00:23Z,2022,17,0,49.7086,49.7086,71.92396,-140.78982,1020.9,-24.15,-999.0,yes,yes,no,300534062028510,Ice Ball_34,USIABP,ICEX_2022,North
2022-02-18T18:00:51Z,2022,18,0,49.7506,49.7506,71.92396,-140.78986,1021.0,-23.85,-999.0,yes,yes,no,300534062028510,Ice Ball_34,USIABP,ICEX_2022,North
2022-02-18T19:00:28Z,2022,19,0,49.792,49.792,71.92397,-140.79022,1020.9,-23.4,-999.0,yes,yes,no,300534062028510,Ice Ball_34,USIABP,ICEX_2022,North
2022-02-18T20:00:23Z,2022,20,0,49.8336,49.8336,71.92395,-140.79075,1021.1,-23.0,-999.0,yes,yes,no,300534062028510,Ice Ball_34,USIABP,ICEX_2022,North
2022-02-18T21:00:25Z,2022,21,0,49.8753,49.8753,71.92392,-140.79138,1021.2,-22.7,-999.0,yes,yes,no,300534062028510,Ice Ball_34,USIABP,ICEX_2022,North
2022-02-18T22:00:54Z,2022,22,0,49.9173,49.9173,71.9239,-140.79188,1021.2,-22.9,-999.0,yes,yes,no,300534062028510,Ice Ball_34,USIABP,ICEX_2022,North
2022-02-18T23:00:23Z,2022,23,0,49.9586,49.9586,71.9239,-140.7921,1021.5,-25.0,-999.0,yes,yes,no,300534062028510,Ice Ball_34,USIABP,ICEX_2022,North
2022-02-19T00:00:25Z,2022,0,0,50.0003,50.0003,71.92389,-140.79209,1022.0,-26.2,-999.0,yes,yes,no,300534062028510,Ice Ball_34,USIABP,ICEX_2022,North
2022-02-19T01:00:54Z,2022,1,0,50.0423,50.0423,71.92388,-140.79206,1022.4,-27.15,-999.0,yes,yes,no,300534062028510,Ice Ball_34,USIABP,ICEX_2022,North
2022-02-19T02:00:23Z,2022,2,0,50.0836,50.0836,71.92387,-140.79211,1023.1,-28.2,-999.0,yes,yes,no,300534062028510,Ice Ball_34,USIABP,ICEX_2022,North
2022-02-19T03:00:25Z,2022,3,0,50.1253,50.1253,71.92387,-140.79197,1023.7,-29.85,-999.0,yes,yes,no,300534062028510,Ice Ball_34,USIABP,ICEX_2022,North
2022-02-19T04:00:54Z,2022,4,0,50.1673,50.1673,71.92386,-140.79209,1024.3,-31.3,-999.0,yes,yes,no,300534062028510,Ice Ball_34,USIABP,ICEX_2022,North
2022-02-19T05:00:31Z,2022,5,0,50.2087,50.2087,71.92386,-140.79208,1025.2,-32.1,-999.0,yes,yes,no,300534062028510,Ice Ball_34,USIABP,ICEX_2022,North
2022-02-19T06:00:25Z,2022,6,0,50.2503,50.2503,71.92387,-140.79206,1025.7,-32.15,-999.0,yes,yes,no,300534062028510,Ice Ball_34,USIABP,ICEX_2022,North
2022-02-19T07:00:28Z,2022,7,0,50.292,50.292,71.92388,-140.79208,1026.5,-32.05,-999.0,yes,yes,no,300534062028510,Ice Ball_34,USIABP,ICEX_2022,North
2022-02-19T08:00:57Z,2022,8,0,50.334,50.334,71.92387,-140.79208,1027.0,-32.4,-999.0,yes,yes,no,300534062028510,Ice Ball_34,USIABP,ICEX_2022,North
2022-02-19T09:00:25Z,2022,9,0,50.3753,50.3753,71.92385,-140.79211,1027.7,-32.8,-999.0,yes,yes,no,300534062028510,Ice Ball_34,USIABP,ICEX_2022,North
2022-02-19T10:00:28Z,2022,10,0,50.417,50.417,71.92387,-140.79213,1028.6,-33.15,-999.0,yes,yes,no,300534062028510,Ice Ball_34,USIABP,ICEX_2022,North
2022-02-19T11:00:23Z,2022,11,0,50.4586,50.4586,71.92385,-140.79204,1029.0,-33.4,-999.0,yes,yes,no,300534062028510,Ice Ball_34,USIABP,ICEX_2022,North
2022-02-19T12:00:51Z,2022,12,0,50.5006,50.5006,71.92384,-140.79205,1030.0,-33.2,-999.0,yes,yes,no,300534062028510,Ice Ball_34,USIABP,ICEX_2022,North
2022-02-19T13:00:28Z,2022,13,0,50.542,50.542,71.92384,-140.79204,1030.4,-33.4,-999.0,yes,yes,no,300534062028510,Ice Ball_34,USIABP,ICEX_2022,North
2022-02-19T14:00:23Z,2022,14,0,50.5836,50.5836,71.92384,-140.79209,1030.9,-33.6,-999.0,yes,yes,no,300534062028510,Ice Ball_34,USIABP,ICEX_2022,North
2022-02-19T15:00:51Z,2022,15,0,50.6256,50.6256,71.92382,-140.79204,1031.6,-33.45,-999.0,yes,yes,no,300534062028510,Ice Ball_34,USIABP,ICEX_2022,North
2022-02-19T16:00:28Z,2022,16,0,50.667,50.667,71.92383,-140.79204,1032.1,-33.5,-999.0,yes,yes,no,300534062028510,Ice Ball_34,USIABP,ICEX_2022,North
2022-02-19T17:00:31Z,2022,17,0,50.7087,50.7087,71.92382,-140.79203,1032.3,-33.3,-999.0,yes,yes,no,300534062028510,Ice Ball_34,USIABP,ICEX_2022,North
2022-02-19T18:00:51Z,2022,18,0,50.7506,50.7506,71.92382,-140.79199,1032.7,-33.2,-999.0,yes,yes,no,300534062028510,Ice Ball_34,USIABP,ICEX_2022,North
2022-02-19T19:00:28Z,2022,19,0,50.792,50.792,71.92385,-140.79201,1033.1,-33.3,-999.0,yes,yes,no,300534062028510,Ice Ball_34,USIABP,ICEX_2022,North
2022-02-19T20:00:23Z,2022,20,0,50.8336,50.8336,71.92383,-140.79198,1033.8,-33.1,-999.0,yes,yes,no,300534062028510,Ice Ball_34,USIABP,ICEX_2022,North
2022-02-19T21:00:25Z,2022,21,0,50.8753,50.8753,71.92381,-140.79208,1034.2,-32.45,-999.0,yes,yes,no,300534062028510,Ice Ball_34,USIABP,ICEX_2022,North
2022-02-19T22:00:54Z,2022,22,0,50.9173,50.9173,71.92381,-140.79201,1034.7,-32.15,-999.0,yes,yes,no,300534062028510,Ice Ball_34,USIABP,ICEX_2022,North
2022-02-19T23:00:23Z,2022,23,0,50.9586,50.9586,71.92381,-140.79202,1035.2,-32.1,-999.0,yes,yes,no,300534062028510,Ice Ball_34,USIABP,ICEX_2022,North
2022-02-20T00:00:25Z,2022,0,0,51.0003,51.0003,71.92387,-140.79223,1035.7,-32.3,-999.0,yes,yes,no,300534062028510,Ice Ball_34,USIABP,ICEX_2022,North
2022-02-20T01:00:54Z,2022,1,0,51.0423,51.0423,71.9238,-140.792,1035.6,-32.15,-999.0,yes,yes,no,300534062028510,Ice Ball_34,USIABP,ICEX_2022,North
2022-02-20T02:00:23Z,2022,2,0,51.0836,51.0836,71.92381,-140.79206,1036.0,-33.2,-999.0,yes,yes,no,300534062028510,Ice Ball_34,USIABP,ICEX_2022,North
2022-02-20T03:00:25Z,2022,3,0,51.1253,51.1253,71.92381,-140.79201,1036.5,-33.7,-999.0,yes,yes,no,300534062028510,Ice Ball_34,USIABP,ICEX_2022,North
2022-02-20T04:00:54Z,2022,4,0,51.1673,51.1673,71.9238,-140.79206,1036.5,-34.1,-999.0,yes,yes,no,300534062028510,Ice Ball_34,USIABP,ICEX_2022,North
2022-02-20T05:00:23Z,2022,5,0,51.2086,51.2086,71.92378,-140.79204,1036.9,-33.95,-999.0,yes,yes,no,300534062028510,Ice Ball_34,USIABP,ICEX_2022,North
2022-02-20T06:00:25Z,2022,6,0,51.2503,51.2503,71.92379,-140.79198,1037.1,-34.05,-999.0,yes,yes,no,300534062028510,Ice Ball_34,USIABP,ICEX_2022,North
2022-02-20T07:00:28Z,2022,7,0,51.292,51.292,71.9238,-140.79201,1037.5,-34.2,-999.0,yes,yes,no,300534062028510,Ice Ball_34,USIABP,ICEX_2022,North
2022-02-20T08:00:57Z,2022,8,0,51.334,51.334,71.9238,-140.79201,1037.9,-34.2,-999.0,yes,yes,no,300534062028510,Ice Ball_34,USIABP,ICEX_2022,North
2022-02-20T09:00:25Z,2022,9,0,51.3753,51.3753,71.92383,-140.79213,1038.2,-34.0,-999.0,yes,yes,no,300534062028510,Ice Ball_34,USIABP,ICEX_2022,North
2022-02-20T10:00:28Z,2022,10,0,51.417,51.417,71.92379,-140.79202,1038.5,-33.9,-999.0,yes,yes,no,300534062028510,Ice Ball_34,USIABP,ICEX_2022,North
2022-02-20T11:00:23Z,2022,11,0,51.4586,51.4586,71.9238,-140.792,1038.8,-33.15,-999.0,yes,yes,no,300534062028510,Ice Ball_34,USIABP,ICEX_2022,North
2022-02-20T12:00:51Z,2022,12,0,51.5006,51.5006,71.92378,-140.79206,1039.2,-30.85,-999.0,yes,yes,no,300534062028510,Ice Ball_34,USIABP,ICEX_2022,North
2022-02-20T13:00:28Z,2022,13,0,51.542,51.542,71.92379,-140.79205,1039.2,-29.55,-999.0,yes,yes,no,300534062028510,Ice Ball_34,USIABP,ICEX_2022,North
2022-02-20T14:00:23Z,2022,14,0,51.5836,51.5836,71.92378,-140.79206,1039.5,-29.35,-999.0,yes,yes,no,300534062028510,Ice Ball_34,USIABP,ICEX_2022,North
2022-02-20T15:00:51Z,2022,15,0,51.6256,51.6256,71.92377,-140.79206,1040.1,-30.4,-999.0,yes,yes,no,300534062028510,Ice Ball_34,USIABP,ICEX_2022,North
2022-02-20T16:00:28Z,2022,16,0,51.667,51.667,71.9238,-140.79208,1040.0,-31.05,-999.0,yes,yes,no,300534062028510,Ice Ball_34,USIABP,ICEX_2022,North
2022-02-20T17:00:23Z,2022,17,0,51.7086,51.7086,71.92378,-140.79208,1040.5,-31.85,-999.0,yes,yes,no,300534062028510,Ice Ball_34,USIABP,ICEX_2022,North
2022-02-20T18:00:51Z,2022,18,0,51.7506,51.7506,71.92379,-140.79206,1040.9,-32.45,-999.0,yes,yes,no,300534062028510,Ice Ball_34,USIABP,ICEX_2022,North
2022-02-20T19:00:28Z,2022,19,0,51.792,51.792,71.92384,-140.79211,1041.1,-31.55,-999.0,yes,yes,no,300534062028510,Ice Ball_34,USIABP,ICEX_2022,North
2022-02-20T20:00:23Z,2022,20,0,51.8336,51.8336,71.92378,-140.79199,1041.1,-30.75,-999.0,yes,yes,no,300534062028510,Ice Ball_34,USIABP,ICEX_2022,North
2022-02-20T21:00:51Z,2022,21,0,51.8756,51.8756,71.9238,-140.79208,1041.7,-30.7,-999.0,yes,yes,no,300534062028510,Ice Ball_34,USIABP,ICEX_2022,North
2022-02-20T22:00:28Z,2022,22,0,51.917,51.917,71.92381,-140.7921,1041.9,-30.05,-999.0,yes,yes,no,300534062028510,Ice Ball_34,USIABP,ICEX_2022,North
2022-02-20T23:00:23Z,2022,23,0,51.9586,51.9586,71.92382,-140.79211,1042.0,-30.0,-999.0,yes,yes,no,300534062028510,Ice Ball_34,USIABP,ICEX_2022,North
2022-02-21T00:01:00Z,2022,0,1,52.0007,52.0007,71.92379,-140.79212,1042.1,-30.3,-999.0,yes,yes,no,300534062028510,Ice Ball_34,USIABP,ICEX_2022,North
2022-02-21T01:00:28Z,2022,1,0,52.042,52.042,71.92379,-140.79215,1042.1,-30.6,-999.0,yes,yes,no,300534062028510,Ice Ball_34,USIABP,ICEX_2022,North
2022-02-21T02:00:23Z,2022,2,0,52.0836,52.0836,71.92383,-140.79219,1042.0,-32.6,-999.0,yes,yes,no,300534062028510,Ice Ball_34,USIABP,ICEX_2022,North
2022-02-21T03:00:25Z,2022,3,0,52.1253,52.1253,71.92383,-140.79212,1041.9,-33.35,-999.0,yes,yes,no,300534062028510,Ice Ball_34,USIABP,ICEX_2022,North
2022-02-21T04:00:54Z,2022,4,0,52.1673,52.1673,71.92383,-140.79223,1041.4,-32.95,-999.0,yes,yes,no,300534062028510,Ice Ball_34,USIABP,ICEX_2022,North
2022-02-21T05:00:23Z,2022,5,0,52.2086,52.2086,71.92385,-140.79236,1041.0,-33.2,-999.0,yes,yes,no,300534062028510,Ice Ball_34,USIABP,ICEX_2022,North
2022-02-21T06:00:25Z,2022,6,0,52.2503,52.2503,71.92389,-140.79239,1041.1,-33.3,-999.0,yes,yes,no,300534062028510,Ice Ball_34,USIABP,ICEX_2022,North
2022-02-21T07:00:28Z,2022,7,0,52.292,52.292,71.92392,-140.79246,1040.9,-32.8,-999.0,yes,yes,no,300534062028510,Ice Ball_34,USIABP,ICEX_2022,North
2022-02-21T08:00:57Z,2022,8,0,52.334,52.334,71.92403,-140.79327,1040.0,-32.5,-999.0,yes,yes,no,300534062028510,Ice Ball_34,USIABP,ICEX_2022,North
2022-02-21T09:00:25Z,2022,9,0,52.3753,52.3753,71.92436,-140.79933,1039.6,-32.7,-999.0,yes,yes,no,300534062028510,Ice Ball_34,USIABP,ICEX_2022,North
2022-02-21T10:00:28Z,2022,10,0,52.417,52.417,71.92504,-140.80953,1039.2,-32.45,-999.0,yes,yes,no,300534062028510,Ice Ball_34,USIABP,ICEX_2022,North
2022-02-21T11:00:23Z,2022,11,0,52.4586,52.4586,71.92627,-140.82259,1038.5,-32.45,-999.0,yes,yes,no,300534062028510,Ice Ball_34,USIABP,ICEX_2022,North
2022-02-21T12:00:51Z,2022,12,0,52.5006,52.5006,71.92792,-140.83875,1037.4,-32.05,-999.0,yes,yes,no,300534062028510,Ice Ball_34,USIABP,ICEX_2022,North
2022-02-21T13:00:28Z,2022,13,0,52.542,52.542,71.92998,-140.8563,1036.4,-31.55,-999.0,yes,yes,no,300534062028510,Ice Ball_34,USIABP,ICEX_2022,North
2022-02-21T14:00:23Z,2022,14,0,52.5836,52.5836,71.9324,-140.87433,1035.6,-30.85,-999.0,yes,yes,no,300534062028510,Ice Ball_34,USIABP,ICEX_2022,North
2022-02-21T15:00:51Z,2022,15,0,52.6256,52.6256,71.93571,-140.8932,1033.8,-28.95,-999.0,yes,yes,no,300534062028510,Ice Ball_34,USIABP,ICEX_2022,North
2022-02-21T16:00:28Z,2022,16,0,52.667,52.667,71.93974,-140.91244,1032.2,-28.0,-999.0,yes,yes,no,300534062028510,Ice Ball_34,USIABP,ICEX_2022,North
2022-02-21T17:00:23Z,2022,17,0,52.7086,52.7086,71.94379,-140.93197,1030.8,-26.85,-999.0,yes,yes,no,300534062028510,Ice Ball_34,USIABP,ICEX_2022,North
2022-02-21T18:00:51Z,2022,18,0,52.7506,52.7506,71.94795,-140.95159,1029.7,-26.3,-999.0,yes,yes,no,300534062028510,Ice Ball_34,USIABP,ICEX_2022,North
2022-02-21T19:00:28Z,2022,19,0,52.792,52.792,71.95198,-140.97316,1027.4,-24.9,-999.0,yes,yes,no,300534062028510,Ice Ball_34,USIABP,ICEX_2022,North
2022-02-21T20:00:23Z,2022,20,0,52.8336,52.8336,71.95745,-140.99439,1026.6,-23.3,-999.0,yes,yes,no,300534062028510,Ice Ball_34,USIABP,ICEX_2022,North
2022-02-21T21:00:51Z,2022,21,0,52.8756,52.8756,71.96326,-141.01421,1025.7,-22.7,-999.0,yes,yes,no,300534062028510,Ice Ball_34,USIABP,ICEX_2022,North
2022-02-21T22:00:28Z,2022,22,0,52.917,52.917,71.96913,-141.03283,1024.2,-22.15,-999.0,yes,yes,no,300534062028510,Ice Ball_34,USIABP,ICEX_2022,North
2022-02-21T23:00:23Z,2022,23,0,52.9586,52.9586,71.97534,-141.05076,1022.1,-22.0,-999.0,yes,yes,no,300534062028510,Ice Ball_34,USIABP,ICEX_2022,North
2022-02-22T00:00:51Z,2022,0,0,53.0006,53.0006,71.98198,-141.06711,1020.9,-22.0,-999.0,yes,yes,no,300534062028510,Ice Ball_34,USIABP,ICEX_2022,North
2022-02-22T01:00:28Z,2022,1,0,53.042,53.042,71.98844,-141.07946,1019.7,-21.8,-999.0,yes,yes,no,300534062028510,Ice Ball_34,USIABP,ICEX_2022,North
2022-02-22T02:00:23Z,2022,2,0,53.0836,53.0836,71.99482,-141.0884,1018.7,-21.5,-999.0,yes,yes,no,300534062028510,Ice Ball_34,USIABP,ICEX_2022,North
2022-02-22T03:00:25Z,2022,3,0,53.1253,53.1253,72.0009,-141.09412,1017.7,-21.0,-999.0,yes,yes,no,300534062028510,Ice Ball_34,USIABP,ICEX_2022,North
2022-02-22T04:00:54Z,2022,4,0,53.1673,53.1673,72.00682,-141.09891,1016.2,-20.25,-999.0,yes,yes,no,300534062028510,Ice Ball_34,USIABP,ICEX_2022,North
2022-02-22T05:00:23Z,2022,5,0,53.2086,53.2086,72.01257,-141.1022,1015.2,-19.75,-999.0,yes,yes,no,300534062028510,Ice Ball_34,USIABP,ICEX_2022,North
2022-02-22T06:00:25Z,2022,6,0,53.2503,53.2503,72.01787,-141.10295,1014.3,-18.6,-999.0,yes,yes,no,300534062028510,Ice Ball_34,USIABP,ICEX_2022,North
2022-02-22T07:00:28Z,2022,7,0,53.292,53.292,72.02255,-141.10201,1013.3,-17.75,-999.0,yes,yes,no,300534062028510,Ice Ball_34,USIABP,ICEX_2022,North
2022-02-22T08:00:57Z,2022,8,0,53.334,53.334,72.02662,-141.10034,1012.3,-18.05,-999.0,yes,yes,no,300534062028510,Ice Ball_34,USIABP,ICEX_2022,North
2022-02-22T09:00:25Z,2022,9,0,53.3753,53.3753,72.03006,-141.09787,1011.5,-18.8,-999.0,yes,yes,no,300534062028510,Ice Ball_34,USIABP,ICEX_2022,North
2022-02-22T10:00:28Z,2022,10,0,53.417,53.417,72.03279,-141.09446,1010.8,-19.45,-999.0,yes,yes,no,300534062028510,Ice Ball_34,USIABP,ICEX_2022,North
2022-02-22T11:00:57Z,2022,11,0,53.459,53.459,72.03501,-141.09174,1009.9,-20.0,-999.0,yes,yes,no,300534062028510,Ice Ball_34,USIABP,ICEX_2022,North
2022-02-22T12:00:25Z,2022,12,0,53.5003,53.5003,72.03696,-141.08977,1008.9,-19.85,-999.0,yes,yes,no,300534062028510,Ice Ball_34,USIABP,ICEX_2022,North
2022-02-22T13:00:28Z,2022,13,0,53.542,53.542,72.03879,-141.08807,1007.5,-18.95,-999.0,yes,yes,no,300534062028510,Ice Ball_34,USIABP,ICEX_2022,North
2022-02-22T14:00:57Z,2022,14,0,53.584,53.584,72.04058,-141.08645,1006.8,-18.4,-999.0,yes,yes,no,300534062028510,Ice Ball_34,USIABP,ICEX_2022,North
2022-02-22T15:00:25Z,2022,15,0,53.6253,53.6253,72.04217,-141.08531,1006.1,-18.9,-999.0,yes,yes,no,300534062028510,Ice Ball_34,USIABP,ICEX_2022,North
2022-02-22T16:00:28Z,2022,16,0,53.667,53.667,72.0434,-141.08479,1005.5,-18.2,-999.0,yes,yes,no,300534062028510,Ice Ball_34,USIABP,ICEX_2022,North
2022-02-22T17:00:31Z,2022,17,0,53.7087,53.7087,72.04481,-141.08392,1004.9,-17.4,-999.0,yes,yes,no,300534062028510,Ice Ball_34,USIABP,ICEX_2022,North
2022-02-22T18:00:51Z,2022,18,0,53.7506,53.7506,72.0465,-141.08222,1004.8,-16.85,-999.0,yes,yes,no,300534062028510,Ice Ball_34,USIABP,ICEX_2022,North
2022-02-22T19:00:28Z,2022,19,0,53.792,53.792,72.04782,-141.07942,1004.3,-15.95,-999.0,yes,yes,no,300534062028510,Ice Ball_34,USIABP,ICEX_2022,North
2022-02-22T20:00:23Z,2022,20,0,53.8336,53.8336,72.04875,-141.07683,1003.8,-15.3,-999.0,yes,yes,no,300534062028510,Ice Ball_34,USIABP,ICEX_2022,North
2022-02-22T21:00:51Z,2022,21,0,53.8756,53.8756,72.0497,-141.07411,1003.9,-14.55,-999.0,yes,yes,no,300534062028510,Ice Ball_34,USIABP,ICEX_2022,North
2022-02-22T22:00:28Z,2022,22,0,53.917,53.917,72.05045,-141.07135,1004.3,-13.9,-999.0,yes,yes,no,300534062028510,Ice Ball_34,USIABP,ICEX_2022,North
2022-02-22T23:00:23Z,2022,23,0,53.9586,53.9586,72.05069,-141.06743,1004.6,-13.9,-999.0,yes,yes,no,300534062028510,Ice Ball_34,USIABP,ICEX_2022,North
2022-02-23T00:00:51Z,2022,0,0,54.0006,54.0006,72.05084,-141.0634,1004.9,-13.45,-999.0,yes,yes,no,300534062028510,Ice Ball_34,USIABP,ICEX_2022,North
2022-02-23T01:00:28Z,2022,1,0,54.042,54.042,72.05111,-141.0598,1005.1,-13.2,-999.0,yes,yes,no,300534062028510,Ice Ball_34,USIABP,ICEX_2022,North
2022-02-23T02:00:23Z,2022,2,0,54.0836,54.0836,72.05159,-141.05492,1004.7,-12.4,-999.0,yes,yes,no,300534062028510,Ice Ball_34,USIABP,ICEX_2022,North
2022-02-23T03:00:25Z,2022,3,0,54.1253,54.1253,72.05202,-141.04808,1004.6,-11.85,-999.0,yes,yes,no,300534062028510,Ice Ball_34,USIABP,ICEX_2022,North
2022-02-23T04:00:54Z,2022,4,0,54.1673,54.1673,72.05249,-141.04052,1004.8,-11.55,-999.0,yes,yes,no,300534062028510,Ice Ball_34,USIABP,ICEX_2022,North
2022-02-23T05:00:23Z,2022,5,0,54.2086,54.2086,72.0528,-141.03164,1004.9,-10.8,-999.0,yes,yes,no,300534062028510,Ice Ball_34,USIABP,ICEX_2022,North
2022-02-23T06:00:25Z,2022,6,0,54.2503,54.2503,72.05338,-141.02328,1004.7,-10.3,-999.0,yes,yes,no,300534062028510,Ice Ball_34,USIABP,ICEX_2022,North
2022-02-23T07:00:54Z,2022,7,0,54.2923,54.2923,72.05418,-141.0133,1004.8,-9.7,-999.0,yes,yes,no,300534062028510,Ice Ball_34,USIABP,ICEX_2022,North
2022-02-23T08:00:23Z,2022,8,0,54.3336,54.3336,72.05482,-141.00139,1005.0,-9.5,-999.0,yes,yes,no,300534062028510,Ice Ball_34,USIABP,ICEX_2022,North
2022-02-23T09:00:25Z,2022,9,0,54.3753,54.3753,72.05506,-140.98961,1004.7,-10.5,-999.0,yes,yes,no,300534062028510,Ice Ball_34,USIABP,ICEX_2022,North
2022-02-23T10:00:54Z,2022,10,0,54.4173,54.4173,72.05474,-140.97615,1004.4,-10.15,-999.0,yes,yes,no,300534062028510,Ice Ball_34,USIABP,ICEX_2022,North
2022-02-23T11:00:23Z,2022,11,0,54.4586,54.4586,72.05477,-140.96115,1003.9,-8.75,-999.0,yes,yes,no,300534062028510,Ice Ball_34,USIABP,ICEX_2022,North
2022-02-23T12:00:25Z,2022,12,0,54.5003,54.5003,72.05466,-140.94355,1003.6,-6.95,-999.0,yes,yes,no,300534062028510,Ice Ball_34,USIABP,ICEX_2022,North
2022-02-23T13:00:54Z,2022,13,0,54.5423,54.5423,72.05447,-140.92399,1002.7,-6.35,-999.0,yes,yes,no,300534062028510,Ice Ball_34,USIABP,ICEX_2022,North
2022-02-23T14:00:23Z,2022,14,0,54.5836,54.5836,72.05379,-140.90422,1003.2,-8.3,-999.0,yes,yes,no,300534062028510,Ice Ball_34,USIABP,ICEX_2022,North
2022-02-23T15:00:25Z,2022,15,0,54.6253,54.6253,72.05044,-140.88136,1004.7,-13.05,-999.0,yes,yes,no,300534062028510,Ice Ball_34,USIABP,ICEX_2022,North
2022-02-23T16:00:54Z,2022,16,0,54.6673,54.6673,72.04578,-140.85846,1006.0,-15.85,-999.0,yes,yes,no,300534062028510,Ice Ball_34,USIABP,ICEX_2022,North
2022-02-23T17:00:23Z,2022,17,0,54.7086,54.7086,72.04034,-140.83782,1006.9,-17.7,-999.0,yes,yes,no,300534062028510,Ice Ball_34,USIABP,ICEX_2022,North
2022-02-23T18:00:25Z,2022,18,0,54.7503,54.7503,72.03428,-140.81768,1007.9,-19.05,-999.0,yes,yes,no,300534062028510,Ice Ball_34,USIABP,ICEX_2022,North
2022-02-23T19:00:28Z,2022,19,0,54.792,54.792,72.02786,-140.79882,1008.8,-20.4,-999.0,yes,yes,no,300534062028510,Ice Ball_34,USIABP,ICEX_2022,North
2022-02-23T20:00:57Z,2022,20,0,54.834,54.834,72.02155,-140.78071,1009.8,-21.55,-999.0,yes,yes,no,300534062028510,Ice Ball_34,USIABP,ICEX_2022,North
2022-02-23T21:00:25Z,2022,21,0,54.8753,54.8753,72.01536,-140.76347,1010.7,-21.95,-999.0,yes,yes,no,300534062028510,Ice Ball_34,USIABP,ICEX_2022,North
2022-02-23T22:00:28Z,2022,22,0,54.917,54.917,72.00905,-140.74666,1011.0,-22.6,-999.0,yes,yes,no,300534062028510,Ice Ball_34,USIABP,ICEX_2022,North
2022-02-23T23:00:57Z,2022,23,0,54.959,54.959,72.00281,-140.73058,1011.9,-23.4,-999.0,yes,yes,no,300534062028510,Ice Ball_34,USIABP,ICEX_2022,North
2022-02-24T00:00:25Z,2022,0,0,55.0003,55.0003,71.9972,-140.71537,1013.1,-24.3,-999.0,yes,yes,no,300534062028510,Ice Ball_34,USIABP,ICEX_2022,North
2022-02-24T01:00:28Z,2022,1,0,55.042,55.042,71.99178,-140.7004,1013.7,-24.95,-999.0,yes,yes,no,300534062028510,Ice Ball_34,USIABP,ICEX_2022,North
2022-02-24T02:00:57Z,2022,2,0,55.084,55.084,71.98654,-140.68675,1014.4,-25.75,-999.0,yes,yes,no,300534062028510,Ice Ball_34,USIABP,ICEX_2022,North
2022-02-24T03:00:25Z,2022,3,0,55.1253,55.1253,71.98166,-140.67554,1015.2,-26.2,-999.0,yes,yes,no,300534062028510,Ice Ball_34,USIABP,ICEX_2022,North
2022-02-24T04:00:28Z,2022,4,0,55.167,55.167,71.97708,-140.66502,1016.1,-26.55,-999.0,yes,yes,no,300534062028510,Ice Ball_34,USIABP,ICEX_2022,North
2022-02-24T05:00:57Z,2022,5,0,55.209,55.209,71.97277,-140.65566,1016.9,-26.85,-999.0,yes,yes,no,300534062028510,Ice Ball_34,USIABP,ICEX_2022,North
2022-02-24T06:00:25Z,2022,6,0,55.2503,55.2503,71.96881,-140.64768,1017.4,-27.2,-999.0,yes,yes,no,300534062028510,Ice Ball_34,USIABP,ICEX_2022,North
2022-02-24T07:00:28Z,2022,7,0,55.292,55.292,71.9649,-140.64118,1017.6,-27.55,-999.0,yes,yes,no,300534062028510,Ice Ball_34,USIABP,ICEX_2022,North
2022-02-24T08:00:57Z,2022,8,0,55.334,55.334,71.96173,-140.63594,1018.4,-27.8,-999.0,yes,yes,no,300534062028510,Ice Ball_34,USIABP,ICEX_2022,North
2022-02-24T09:00:25Z,2022,9,0,55.3753,55.3753,71.95939,-140.63201,1018.9,-27.85,-999.0,yes,yes,no,300534062028510,Ice Ball_34,USIABP,ICEX_2022,North
2022-02-24T10:00:28Z,2022,10,0,55.417,55.417,71.95744,-140.62894,1019.1,-28.05,-999.0,yes,yes,no,300534062028510,Ice Ball_34,USIABP,ICEX_2022,North
2022-02-24T11:00:23Z,2022,11,0,55.4586,55.4586,71.95652,-140.62666,1019.7,-28.35,-999.0,yes,yes,no,300534062028510,Ice Ball_34,USIABP,ICEX_2022,North
2022-02-24T12:00:51Z,2022,12,0,55.5006,55.5006,71.95639,-140.62511,1019.8,-28.05,-999.0,yes,yes,no,300534062028510,Ice Ball_34,USIABP,ICEX_2022,North
2022-02-24T13:00:28Z,2022,13,0,55.542,55.542,71.95637,-140.62482,1019.7,-28.05,-999.0,yes,yes,no,300534062028510,Ice Ball_34,USIABP,ICEX_2022,North
2022-02-24T14:00:23Z,2022,14,0,55.5836,55.5836,71.95633,-140.62446,1019.6,-28.35,-999.0,yes,yes,no,300534062028510,Ice Ball_34,USIABP,ICEX_2022,North
2022-02-24T15:00:25Z,2022,15,0,55.6253,55.6253,71.95584,-140.62344,1019.8,-28.35,-999.0,yes,yes,no,300534062028510,Ice Ball_34,USIABP,ICEX_2022,North
2022-02-24T16:00:54Z,2022,16,0,55.6673,55.6673,71.95562,-140.62304,1019.5,-28.05,-999.0,yes,yes,no,300534062028510,Ice Ball_34,USIABP,ICEX_2022,North